Weather History for Glendive, MT

Change the Weather History Date:

Wednesday, February 20, 2013

  Actual Average Record
Temperature  
Mean Temperature 15 °F -  
Max Temperature 24 °F 31 °F 50 °F (1998)
Min Temperature 6 °F 12 °F 0 °F (2001)
Degree Days  
Heating Degree Days 50    
Moisture  
Dew Point 3 °F    
Average Humidity 62    
Maximum Humidity 79    
Minimum Humidity 50    
Precipitation  
Precipitation 0.00 in - - ()
Sea Level Pressure  
Sea Level Pressure 29.92 in    
Wind  
Wind Speed 9 mph (East)    
Max Wind Speed 14 mph    
Max Gust Speed 21 mph    
Visibility 10 miles    
Events      
Averages and records for this station are not official NWS values.
T = Trace of Precipitation, MM = Missing Value Source: NWS Daily Summary

Daily Weather History Graph

Daily Weather History Graph

Search for Another Location

Airport:

Trip Planner

Search our weather history database for the weather conditions in past years. The results will help you decide how hot, cold, wet, or windy it might be!

Date:

Astronomy

Feb. 20, 2013 Rise Set
Actual Time 6:54 AM MST 5:31 PM MST
Civil Twilight 6:23 AM MST 6:02 PM MST
Nautical Twilight 5:48 AM MST 6:38 PM MST
Astronomical Twilight 5:13 AM MST 7:13 PM MST
Moon 12:43 PM MST 3:29 AM MST
Length of Visible Light 11h 38m
Length of Day
10h 36m
Waxing Gibbous, 76% of the Moon is Illuminated
Feb 20
Waxing Gibbous
Feb 25
Full
Mar 4
Last Quarter
Mar 11
New
Mar 19
First Quarter

Hourly Weather History & Observations

Time (MST) Temp. Windchill Dew Point Humidity Pressure Visibility Wind Dir Wind Speed Gust Speed Precip Events Conditions
12:15 AM 10.4 °F -5.4 °F -0.4 °F 62% 29.98 in 10.0 mi ESE 13.8 mph 20.7 mph N/A   Clear
12:35 AM 10.4 °F -4.1 °F -0.4 °F 62% 29.98 in 10.0 mi ESE 11.5 mph - N/A   Clear
12:55 AM 10.4 °F -4.8 °F -0.4 °F 62% 29.97 in 10.0 mi ESE 12.7 mph - N/A   Clear
1:15 AM 10.4 °F -3.3 °F -0.4 °F 62% 29.97 in 10.0 mi ESE 10.4 mph - N/A   Clear
1:55 AM 10.4 °F -2.4 °F -0.4 °F 62% 29.96 in 10.0 mi ESE 9.2 mph - N/A   Clear
2:15 AM 10.4 °F -4.1 °F 1.4 °F 67% 29.95 in 10.0 mi ESE 11.5 mph - N/A   Clear
2:35 AM 10.4 °F -2.4 °F -0.4 °F 62% 29.95 in 10.0 mi ESE 9.2 mph - N/A   Clear
2:55 AM 8.6 °F -3.7 °F -2.2 °F 62% 29.94 in 10.0 mi East 8.1 mph - N/A   Clear
3:15 AM 8.6 °F -4.7 °F -0.4 °F 67% 29.94 in 10.0 mi ESE 9.2 mph - N/A   Clear
3:35 AM 8.6 °F -3.7 °F -0.4 °F 67% 29.93 in 10.0 mi East 8.1 mph - N/A   Clear
4:35 AM 6.8 °F -4.8 °F -0.4 °F 72% 29.93 in 10.0 mi East 6.9 mph - N/A   Clear
4:55 AM 6.8 °F -3.5 °F -0.4 °F 72% 29.93 in 10.0 mi ENE 5.8 mph - N/A   Clear
5:15 AM 6.8 °F -4.8 °F -0.4 °F 72% 29.93 in 10.0 mi ENE 6.9 mph - N/A   Clear
5:35 AM 6.8 °F -5.9 °F -0.4 °F 72% 29.92 in 10.0 mi East 8.1 mph - N/A   Clear
5:55 AM 6.8 °F -3.5 °F -0.4 °F 72% 29.92 in 10.0 mi ENE 5.8 mph - N/A   Clear
6:15 AM 6.8 °F -3.5 °F -0.4 °F 72% 29.92 in 10.0 mi ENE 5.8 mph - N/A   Clear
6:35 AM 6.8 °F -4.8 °F -0.4 °F 72% 29.92 in 10.0 mi ENE 6.9 mph - N/A   Clear
6:55 AM 6.8 °F -4.8 °F 1.4 °F 79% 29.93 in 10.0 mi ENE 6.9 mph - N/A   Clear
7:15 AM 6.8 °F -6.9 °F 1.4 °F 79% 29.93 in 10.0 mi ENE 9.2 mph - N/A   Clear
7:35 AM 8.6 °F -1.3 °F -0.4 °F 67% 29.93 in 10.0 mi ENE 5.8 mph - N/A   Clear
7:55 AM 8.6 °F -1.3 °F 1.4 °F 73% 29.93 in 10.0 mi ENE 5.8 mph - N/A   Clear
8:15 AM 8.6 °F -2.6 °F 1.4 °F 73% 29.93 in 10.0 mi ENE 6.9 mph - N/A   Clear
8:55 AM 10.4 °F -1.5 °F 1.4 °F 67% 29.94 in 10.0 mi East 8.1 mph - N/A   Clear
9:15 AM 12.2 °F 1.7 °F 3.2 °F 67% 29.94 in 10.0 mi East 6.9 mph - N/A   Clear
9:55 AM 12.2 °F 1.7 °F 1.4 °F 62% 29.94 in 10.0 mi East 6.9 mph - N/A   Clear
10:15 AM 12.2 °F 2.9 °F 1.4 °F 62% 29.94 in 10.0 mi East 5.8 mph - N/A   Clear
10:35 AM 14.0 °F 3.9 °F 3.2 °F 62% 29.94 in 10.0 mi East 6.9 mph - N/A   Clear
10:55 AM 15.8 °F 6.1 °F 3.2 °F 58% 29.94 in 10.0 mi East 6.9 mph - N/A   Clear
11:15 AM 15.8 °F 7.2 °F 3.2 °F 58% 29.94 in 10.0 mi ENE 5.8 mph - N/A   Clear
11:35 AM 17.6 °F 8.2 °F 3.2 °F 53% 29.93 in 10.0 mi East 6.9 mph - N/A   Clear
11:55 AM 17.6 °F 8.2 °F 3.2 °F 53% 29.93 in 10.0 mi ESE 6.9 mph - N/A   Clear
12:15 PM 17.6 °F 12.3 °F 6.8 °F 63% 29.92 in 10.0 mi South 3.5 mph - N/A   Clear
12:35 PM 19.4 °F 14.3 °F 5.0 °F 54% 29.92 in 10.0 mi SSE 3.5 mph - N/A   Clear
12:55 PM 19.4 °F 14.3 °F 6.8 °F 58% 29.91 in 10.0 mi East 3.5 mph - N/A   Clear
1:15 PM 19.4 °F 10.4 °F 6.8 °F 58% 29.91 in 10.0 mi SE 6.9 mph - N/A   Clear
1:35 PM 21.2 °F 12.6 °F 8.6 °F 58% 29.90 in 10.0 mi SSE 6.9 mph - N/A   Clear
1:55 PM 21.2 °F 12.6 °F 6.8 °F 54% 29.90 in 10.0 mi SSE 6.9 mph - N/A   Clear
2:15 PM 23.0 °F 14.7 °F 8.6 °F 54% 29.90 in 10.0 mi SSE 6.9 mph - N/A   Clear
2:35 PM 23.0 °F 15.8 °F 8.6 °F 54% 29.90 in 10.0 mi SE 5.8 mph - N/A   Clear
2:55 PM 24.8 °F 17.9 °F 8.6 °F 50% 29.89 in 10.0 mi ESE 5.8 mph - N/A   Clear
3:15 PM 24.8 °F 17.9 °F 8.6 °F 50% 29.89 in 10.0 mi East 5.8 mph - N/A   Clear
3:35 PM 24.8 °F 16.1 °F 8.6 °F 50% 29.89 in 10.0 mi ESE 8.1 mph - N/A   Clear
3:55 PM 24.8 °F 17.9 °F 8.6 °F 50% 29.89 in 10.0 mi SE 5.8 mph - N/A   Clear
4:15 PM 24.8 °F 17.9 °F 8.6 °F 50% 29.89 in 10.0 mi East 5.8 mph - N/A   Clear
4:35 PM 24.8 °F 19.1 °F 8.6 °F 50% 29.89 in 10.0 mi ENE 4.6 mph - N/A   Clear
4:55 PM 24.8 °F - 8.6 °F 50% 29.89 in 10.0 mi Calm Calm - N/A   Clear
5:35 PM 21.2 °F 14.9 °F 10.4 °F 63% 29.90 in 10.0 mi NE 4.6 mph - N/A   Clear
5:55 PM 19.4 °F 11.5 °F 10.4 °F 68% 29.90 in 10.0 mi North 5.8 mph - N/A   Clear
6:15 PM 17.6 °F 9.3 °F 10.4 °F 73% 29.90 in 10.0 mi North 5.8 mph - N/A   Clear